This is the latest recevied weather packets stored in our database for station/object APPOWX. If no packets are shown the sender has not sent any weather packets the latest 10 day(s).
| Time | Temp. | Humidity | Pressure | Rain* | Wind** | Luminosity | Snow |
|---|---|---|---|---|---|---|---|
| 1778294096 | 14.44° C | 52% | 1016.8 hPa | 0 mm | - | - | - |
| 1778294036 | 14.44° C | 50% | 1016.9 hPa | 0 mm | - | - | - |
| 1778293976 | 14.44° C | 53% | 1016.6 hPa | 0 mm | - | - | - |
| 1778293916 | 14.44° C | 50% | 1016.9 hPa | 0 mm | - | - | - |
| 1778293855 | 14.44° C | 49% | 1016.7 hPa | 0 mm | - | - | - |
| 1778293796 | 14.44° C | 49% | 1016.8 hPa | 0 mm | - | - | - |
| 1778293735 | 14.44° C | 49% | 1016.8 hPa | 0 mm | - | - | - |
| 1778293676 | 14.44° C | 50% | 1016.9 hPa | 0 mm | - | - | - |
| 1778293616 | 14.44° C | 50% | 1016.7 hPa | 0 mm | - | - | - |
| 1778293555 | 14.44° C | 49% | 1016.9 hPa | 0 mm | - | - | - |
| 1778293495 | 14.44° C | 49% | 1016.7 hPa | 0 mm | - | - | - |
| 1778293435 | 14.44° C | 50% | 1016.8 hPa | 0 mm | - | - | - |
| 1778293375 | 14.44° C | 49% | 1016.8 hPa | 0 mm | - | - | - |
| 1778293315 | 14.44° C | 50% | 1016.9 hPa | 0 mm | - | - | - |
| 1778293255 | 15° C | 50% | 1016.8 hPa | 0 mm | - | - | - |
| 1778293195 | 15° C | 50% | 1016.9 hPa | 0 mm | - | - | - |
| 1778293135 | 15° C | 51% | 1016.7 hPa | 0 mm | - | - | - |
| 1778293075 | 15° C | 49% | 1016.7 hPa | 0 mm | - | - | - |
| 1778293015 | 15° C | 49% | 1016.9 hPa | 0 mm | - | - | - |
| 1778292955 | 15° C | 52% | 1016.9 hPa | 0 mm | - | - | - |
| 1778292894 | 15° C | 51% | 1016.8 hPa | 0 mm | - | - | - |
| 1778292835 | 15° C | 51% | 1016.9 hPa | 0 mm | - | - | - |
| 1778292775 | 15° C | 50% | 1016.9 hPa | 0 mm | - | - | - |
| 1778292714 | 15° C | 50% | 1016.9 hPa | 0 mm | - | - | - |
| 1778292655 | 15° C | 49% | 1016.8 hPa | 0 mm | - | - | - |
* Rain latest hour (hover to see other rain measurements)
** Current wind speed in m/s (hover to see current wind gust speed)